Weather History for Black River Falls, WI

Change the Weather History Date:

Sunday, September 1, 2013

  Actual Average (KLSE) Record (KLSE)
Temperature  
Mean Temperature 72 °F 68 °F  
Max Temperature 83 °F 79 °F 98 °F (1913)
Min Temperature 63 °F 58 °F 40 °F (1909)
Degree Days  
Heating Degree Days 0 1  
Month to date heating degree days 1  
Since 1 July heating degree days 21  
Cooling Degree Days 8 5  
Month to date cooling degree days 5  
Year to date cooling degree days 705  
Growing Degree Days 22 (Base 50)    
Moisture  
Dew Point 61 °F    
Average Humidity 71    
Maximum Humidity 100    
Minimum Humidity 34    
Precipitation  
Precipitation 0.00 in 0.13 in 1.25 in (1923)
Month to date precipitation 0.13  
Year to date precipitation 24.09  
Snow  
Snow 0.00 in 0.00 in 0.00 in (2002)
Month to date snowfall 0.0  
Since 1 July snowfall 0.0  
Snow Depth -    
Sea Level Pressure  
Sea Level Pressure 29.80 in    
Wind  
Wind Speed 4 mph (WNW)    
Max Wind Speed 16 mph    
Max Gust Speed 24 mph    
Visibility 9 miles    
Events Rain    
T = Trace of Precipitation, MM = Missing Value Source: NWS Daily Summary

Daily Weather History Graph

Daily Weather History Graph

Search for Another Location

Airport:

Trip Planner

Search our weather history database for the weather conditions in past years. The results will help you decide how hot, cold, wet, or windy it might be!

Date:

Astronomy

Sep. 01, 2013 Rise Set
Actual Time 6:26 AM CDT 7:39 PM CDT
Civil Twilight 5:56 AM CDT 8:08 PM CDT
Nautical Twilight 5:20 AM CDT 8:44 PM CDT
Astronomical Twilight 4:42 AM CDT 9:22 PM CDT
Moon 2:43 AM CDT (9/1) 5:21 PM CDT (9/1)
Length of Visible Light 14h 12m
Length of Day
13h 12m
Waning Crescent, 13% of the Moon is Illuminated
Sep 1
Waning Crescent
Sep 5
New
Sep 12
First Quarter
Sep 19
Full
Sep 26
Last Quarter

Hourly Weather History & Observations

Time (CDT) Temp. Heat Index Dew Point Humidity Pressure Visibility Wind Dir Wind Speed Gust Speed Precip Events Conditions
12:15 AM 69.8 °F - 67.5 °F 92% 29.76 in 10.0 mi Calm Calm - N/A   Clear
12:35 AM 69.8 °F - 67.3 °F 92% 29.74 in 10.0 mi NE 3.5 mph - N/A   Clear
12:55 AM 69.1 °F - 67.3 °F 94% 29.76 in 10.0 mi West 6.9 mph - N/A   Clear
1:15 AM 68.9 °F - 67.5 °F 95% 29.76 in 10.0 mi Calm Calm - N/A   Clear
1:35 AM 68.5 °F - 67.3 °F 96% 29.76 in 10.0 mi Calm Calm - N/A   Scattered Clouds
1:55 AM 68.0 °F - 67.1 °F 97% 29.76 in 10.0 mi Calm Calm - N/A Rain Light Rain
2:15 AM 67.1 °F - 66.6 °F 98% 29.76 in 10.0 mi SSW 3.5 mph - N/A   Clear
2:35 AM 66.9 °F - 66.7 °F 99% 29.77 in 10.0 mi Calm Calm - N/A   Clear
2:55 AM 65.5 °F - 65.5 °F 100% 29.76 in 7.0 mi Calm Calm - N/A   Scattered Clouds
3:15 AM 64.9 °F - 64.9 °F 100% 29.77 in 7.0 mi Calm Calm - N/A   Scattered Clouds
3:35 AM 64.6 °F - 64.6 °F 100% 29.77 in 7.0 mi Calm Calm - N/A   Scattered Clouds
3:55 AM 65.5 °F - 65.5 °F 100% 29.76 in 7.0 mi ESE 3.5 mph - N/A   Scattered Clouds
4:15 AM 65.3 °F - 65.3 °F 100% 29.76 in 7.0 mi Calm Calm - N/A   Clear
4:35 AM 64.6 °F - 64.6 °F 100% 29.75 in 5.0 mi SE 3.5 mph - N/A   Clear
4:55 AM 65.5 °F - 65.5 °F 100% 29.75 in 7.0 mi Calm Calm - N/A   Clear
5:15 AM 64.4 °F - 64.4 °F 100% 29.76 in 5.0 mi West 3.5 mph - N/A   Clear
5:35 AM 64.6 °F - 64.6 °F 100% 29.76 in 4.0 mi Calm Calm - N/A   Clear
5:55 AM 63.9 °F - 63.9 °F 100% 29.76 in 4.0 mi Calm Calm - N/A   Mostly Cloudy
6:15 AM 64.0 °F - 64.0 °F 100% 29.77 in 5.0 mi Calm Calm - N/A   Mostly Cloudy
6:35 AM 63.5 °F - 63.5 °F 100% 29.77 in 5.0 mi South 3.5 mph - N/A   Mostly Cloudy
6:55 AM 64.9 °F - 64.9 °F 100% 29.76 in 5.0 mi Calm Calm - N/A   Overcast
7:15 AM 65.8 °F - 65.8 °F 100% 29.76 in 5.0 mi Calm Calm - N/A   Mostly Cloudy
7:35 AM 67.1 °F - 67.1 °F 100% 29.75 in 7.0 mi SSW 3.5 mph - N/A   Mostly Cloudy
7:55 AM 68.7 °F - 68.7 °F 100% 29.75 in 10.0 mi SSW 3.5 mph - N/A   Scattered Clouds
8:15 AM 71.4 °F - 69.8 °F 95% 29.76 in 10.0 mi SW 3.5 mph - N/A   Scattered Clouds
8:35 AM 72.0 °F - 70.0 °F 93% 29.76 in 10.0 mi Calm Calm - N/A   Scattered Clouds
8:55 AM 73.8 °F - 70.5 °F 90% 29.77 in 10.0 mi West 3.5 mph - N/A   Mostly Cloudy
9:15 AM 74.3 °F - 70.0 °F 86% 29.78 in 10.0 mi WNW 4.6 mph - N/A   Overcast
9:35 AM 74.5 °F - 64.6 °F 71% 29.78 in 10.0 mi NW 5.8 mph - N/A   Overcast
9:55 AM 75.2 °F - 63.7 °F 67% 29.78 in 10.0 mi WNW 6.9 mph - N/A   Overcast
10:15 AM 75.7 °F - 62.8 °F 64% 29.78 in 10.0 mi NW 5.8 mph - N/A   Overcast
10:35 AM 77.2 °F - 62.1 °F 59% 29.78 in 10.0 mi NW 9.2 mph - N/A   Overcast
10:55 AM 77.2 °F - 61.9 °F 59% 29.78 in 10.0 mi WNW 8.1 mph - N/A   Overcast
11:15 AM 78.1 °F - 61.5 °F 57% 29.78 in 10.0 mi WNW 8.1 mph - N/A   Scattered Clouds
11:35 AM 78.8 °F - 61.2 °F 55% 29.78 in 10.0 mi NW 10.4 mph - N/A   Mostly Cloudy
11:55 AM 80.4 °F 81.3 °F 60.8 °F 51% 29.78 in 10.0 mi West 12.7 mph 19.6 mph N/A   Scattered Clouds
12:15 PM 79.5 °F - 59.0 °F 49% 29.78 in 10.0 mi WNW 10.4 mph 17.3 mph N/A   Scattered Clouds
12:35 PM 80.8 °F 81.1 °F 57.9 °F 46% 29.79 in 10.0 mi NW 16.1 mph 24.2 mph N/A   Scattered Clouds
12:55 PM 80.8 °F 80.8 °F 56.3 °F 43% 29.79 in 10.0 mi WNW 12.7 mph 21.9 mph N/A   Scattered Clouds
1:15 PM 81.3 °F 81.0 °F 55.4 °F 41% 29.79 in 10.0 mi WNW 12.7 mph 19.6 mph N/A   Scattered Clouds
1:35 PM 79.9 °F - 56.1 °F 44% 29.79 in 10.0 mi NW 11.5 mph 21.9 mph N/A   Scattered Clouds
1:55 PM 82.2 °F 81.6 °F 55.4 °F 40% 29.80 in 10.0 mi WNW 13.8 mph 19.6 mph N/A   Scattered Clouds
2:15 PM 79.9 °F - 54.3 °F 41% 29.80 in 10.0 mi NW 15.0 mph 19.6 mph N/A   Scattered Clouds
2:35 PM 80.1 °F 80.0 °F 54.0 °F 40% 29.80 in 10.0 mi NNW 10.4 mph 18.4 mph N/A   Scattered Clouds
2:55 PM 79.2 °F - 54.0 °F 42% 29.80 in 10.0 mi NW 9.2 mph 16.1 mph N/A   Scattered Clouds
3:15 PM 81.0 °F - 52.5 °F 37% 29.80 in 10.0 mi WNW 12.7 mph 20.7 mph N/A   Scattered Clouds
3:35 PM 82.6 °F - 51.6 °F 34% 29.80 in 10.0 mi NW 10.4 mph 18.4 mph N/A   Mostly Cloudy
3:55 PM 81.7 °F - 52.2 °F 36% 29.80 in 10.0 mi NW 10.4 mph 16.1 mph N/A   Mostly Cloudy
4:15 PM 79.7 °F - 53.8 °F 41% 29.80 in 10.0 mi NW 8.1 mph - N/A   Mostly Cloudy
4:35 PM 78.3 °F - 54.7 °F 44% 29.80 in 10.0 mi WNW 5.8 mph - N/A   Mostly Cloudy
4:55 PM 78.8 °F - 54.7 °F 43% 29.80 in 10.0 mi WNW 9.2 mph - N/A   Overcast
5:15 PM 78.8 °F - 55.2 °F 44% 29.81 in 10.0 mi NW 8.1 mph - N/A   Overcast
5:35 PM 77.2 °F - 56.1 °F 48% 29.81 in 10.0 mi WNW 8.1 mph - N/A   Overcast
5:55 PM 77.2 °F - 56.3 °F 48% 29.82 in 10.0 mi WNW 9.2 mph - N/A   Overcast
6:15 PM 76.1 °F - 57.2 °F 52% 29.82 in 10.0 mi NW 5.8 mph - N/A   Mostly Cloudy
6:35 PM 76.1 °F - 57.4 °F 52% 29.83 in 10.0 mi WNW 5.8 mph - N/A   Mostly Cloudy
6:55 PM 75.4 °F - 57.2 °F 53% 29.83 in 10.0 mi NW 6.9 mph - N/A   Overcast
7:15 PM 74.5 °F - 56.5 °F 53% 29.83 in 10.0 mi NNW 4.6 mph - N/A   Mostly Cloudy
7:35 PM 72.7 °F - 56.3 °F 56% 29.84 in 10.0 mi NNW 6.9 mph - N/A   Clear
7:55 PM 71.2 °F - 56.3 °F 59% 29.84 in 10.0 mi Calm Calm - N/A   Scattered Clouds
8:15 PM 70.3 °F - 56.3 °F 61% 29.85 in 10.0 mi NW 3.5 mph - N/A   Mostly Cloudy
8:35 PM 69.4 °F - 56.7 °F 64% 29.86 in 10.0 mi WNW 5.8 mph - N/A   Mostly Cloudy
8:55 PM 69.1 °F - 57.2 °F 66% 29.86 in 10.0 mi WNW 3.5 mph - N/A   Scattered Clouds
9:15 PM 68.9 °F - 57.6 °F 67% 29.87 in 10.0 mi NW 4.6 mph - N/A   Scattered Clouds
9:35 PM 68.9 °F - 57.7 °F 68% 29.88 in 10.0 mi NNW 4.6 mph - N/A   Mostly Cloudy
9:55 PM 68.5 °F - 58.1 °F 69% 29.88 in 10.0 mi NW 5.8 mph - N/A   Overcast
10:15 PM 68.5 °F - 58.1 °F 69% 29.88 in 10.0 mi NW 6.9 mph - N/A   Overcast
10:35 PM 68.2 °F - 58.1 °F 70% 29.89 in 10.0 mi NW 9.2 mph - N/A   Overcast
10:55 PM 67.6 °F - 58.1 °F 71% 29.90 in 10.0 mi NW 5.8 mph - N/A   Overcast
11:15 PM 67.1 °F - 58.1 °F 73% 29.91 in 10.0 mi NW 5.8 mph - N/A   Overcast
11:35 PM 66.6 °F - 58.1 °F 74% 29.91 in 10.0 mi NNW 5.8 mph - N/A   Mostly Cloudy
11:55 PM 66.2 °F - 57.6 °F 74% 29.91 in 10.0 mi NW 6.9 mph - N/A   Mostly Cloudy